Location: Newark
(50.0306°N, 2.3272°E)
Time: 03:07:53
(UTC+00:00)

deb Explorer IX - Visible Passes

Search period start: 06 December 2019 00:00
Search period end: 16 December 2019 00:00
Orbit: 545 x 1105 km, 38.8° (Epoch: 05 December)

Date Brightness Start Highest point End Pass type
(mag) Time Alt. Az. Time Alt. Az. Time Alt. Az.
06 Dec ? 17:49:27 10° SSW 17:54:26 23° SSE 17:57:23 17° SE visible
06 Dec ? 19:34:41 10° SW 19:38:45 28° SSW 19:38:45 28° SSW visible
07 Dec ? 17:27:25 10° SSW 17:32:17 22° SSE 17:36:30 13° ESE visible
07 Dec ? 19:12:37 10° SW 19:17:52 32° S 19:17:52 32° S visible
07 Dec ? 20:59:08 10° WSW 20:59:14 10° WSW 20:59:14 10° WSW visible
08 Dec ? 17:05:24 10° SSW 17:10:08 22° SSE 17:15:15 10° ESE visible
08 Dec ? 18:50:33 10° SW 18:56:23 32° S 18:56:58 32° SSE visible
08 Dec ? 20:37:03 10° WSW 20:38:20 15° WSW 20:38:20 15° WSW visible
09 Dec ? 16:43:25 10° SSW 16:47:59 22° SSE 16:52:58 10° ESE visible
09 Dec ? 18:28:32 10° SW 18:34:12 32° S 18:36:05 28° SSE visible
09 Dec ? 20:14:58 10° WSW 20:17:27 20° SW 20:17:27 20° SW visible
10 Dec ? 16:21:26 10° SSW 16:25:51 21° SSE 16:30:41 10° ESE visible
10 Dec ? 18:06:30 10° SW 18:12:02 31° S 18:15:12 22° SE visible
10 Dec ? 19:52:54 10° WSW 19:56:35 24° SW 19:56:35 24° SW visible
11 Dec ? 17:44:30 10° SW 17:49:53 31° S 17:54:22 16° SE visible
11 Dec ? 19:30:52 10° WSW 19:35:45 27° SSW 19:35:45 27° SSW visible
12 Dec ? 17:22:30 10° SW 17:27:43 30° S 17:33:32 10° ESE visible
12 Dec ? 19:08:51 10° WSW 19:14:07 26° SSW 19:14:58 26° S visible
13 Dec ? 17:00:33 10° SW 17:05:35 29° S 17:11:14 10° ESE visible
13 Dec ? 18:46:50 10° WSW 18:51:57 25° SSW 18:54:15 21° SSE visible
13 Dec ? 20:35:07 10° WSW 20:35:38 11° SW 20:35:38 11° SW visible
14 Dec ? 16:38:35 10° SW 16:43:27 29° S 16:48:56 10° ESE visible
14 Dec ? 18:24:52 10° WSW 18:29:46 25° SSW 18:33:39 15° SSE visible
14 Dec ? 20:13:14 10° SW 20:15:02 12° SW 20:15:02 12° SW visible
15 Dec ? 18:02:54 10° WSW 18:07:37 24° SSW 18:12:49 10° SE visible
15 Dec ? 19:51:26 10° SW 19:53:42 12° SSW 19:54:35 12° SSW visible
